N8ESG-13 Weather Reports


time (UTC)temp
C
wind
direction
speed
KPH
gust
KPH
rain 1hr
cm
rain 24hr
cm
rain mn
cm
humidity
%
barometer
mb
20260503233016 13 45 4.8 17.7 0.00 0.00 0.00 48 1010.3
20260503230016 13 68 4.8 19.3 0.00 0.00 0.00 45 1010.5
20260503223016 14 45 4.8 17.7 0.00 0.00 0.00 47 1010.7
20260503220036 14 45 4.8 17.7 0.00 0.00 0.00 45 1010.9
20260503213016 15 68 4.8 22.5 0.00 0.00 0.00 44 1010.8
20260503210016 15 45 4.8 16.1 0.00 0.00 0.00 43 1010.8
20260503203037 15 45 4.8 22.5 0.00 0.00 0.00 45 1010.9
20260503200017 14 45 4.8 19.3 0.00 0.00 0.00 48 1011.4
20260503193017 14 113 4.8 17.7 0.00 0.00 0.00 44 1011.8
20260503190016 15 45 6.4 20.9 0.00 0.00 0.00 43 1012.3
20260503183016 15 45 6.4 22.5 0.00 0.00 0.00 43 1012.7
20260503180016 15 113 6.4 19.3 0.00 0.00 0.00 47 1012.9
20260503173016 15 90 6.4 22.5 0.00 0.00 0.00 45 1013.4
20260503090157 0 0.0 0.0 0.00 0.03 0.00 92 1014.3
20260503053016 0 0.0 0.0 0.00 0.10 0.00 89 1014.5
20260503050016 0 0.0 0.0 0.00 0.10 0.00 88 1014.6
20260503043036 1 0.0 0.0 0.00 0.10 0.00 83 1014.6
20260503040016 2 0.0 0.0 0.00 0.13 0.13 79 1014.7
20260503033016 3 0.0 0.0 0.00 0.13 0.13 78 1014.9
20260503030016 3 0.0 0.0 0.00 0.13 0.13 79 1014.9
20260503023016 3 0.0 0.0 0.00 0.13 0.13 77 1015.2
20260503020016 3 0.0 0.0 0.00 0.13 0.13 73 1015.2
20260503013016 3 0.0 0.0 0.00 0.13 0.13 73 1015.2
20260503010016 4 0.0 1.6 0.00 0.13 0.13 69 1015.2
20260503003016 4 0.0 3.2 0.00 0.13 0.13 67 1015.1
20260503000016 4 0.0 4.8 0.00 0.13 0.13 65 1015.0